Flag for Germany Weather past 2 weeks in Pirmasens, Rhineland-Palatinate, Germany

Now
43 °F

Overcast.


Feels Like: 36 °F
Forecast: 33 / 40 °F
Wind: 13 mph from West

Location: Ramstein

Current Time: Mar 4, 2015 at 2:41:12 PM

Latest Report: Mar 4, 2015 at 1:58 PM


Visibility: N/A

Pressure: 30.34 "Hg

Humidity: 54%

Dew point: 28 °F

Location of PirmasensLocation

Historic Weather in Pirmasens — Graph

°F

Pirmasens temperature yesterday

Maximum temperature yesterday: 51 °F (at 3:58 PM)
Minimum temperature yesterday: 34 °F (at 6:58 AM)
Average temperature yesterday: 41 °F

Past Weeks' High & Low Weather Summary

 TemperatureHumidityPressure
High54 °F (Feb 20, 3:58 PM)100% (Feb 21, 6:58 PM)30.75 "Hg (Feb 21, 6:58 PM)
Low25 °F (Feb 28, 5:58 AM)36% (Feb 20, 10:58 PM)29.46 "Hg (Feb 21, 6:04 AM)
Average39 °F79%30.02 "Hg
* Reported Feb 17 12:58 PM — Mar 4 12:58 PM, Pirmasens, Weather by CustomWeather, © 2015

Note: Actual official high and low records may vary slightly from our data, if they occured in-between our weather recording intervals... More about our weather records

Advertising

Pirmasens weather history for previous 24 hours

 ConditionsComfort  
Time TempWeatherWind HumidityBarometerVisibility
12:58 PM
Wed, Mar 4
43 °FPartly sunny.15 mph59%30.34 "HgN/A
11:58 AM41 °FOvercast.13 mph66%30.35 "HgN/A
10:58 AM39 °FOvercast.10 mph69%30.36 "HgN/A
9:58 AM38 °FMostly cloudy.17 mph77%30.33 "HgN/A
8:58 AM39 °FSunny.13 mph75%30.32 "HgN/A
7:58 AM36 °FScattered clouds.7 mph87%30.30 "HgN/A
6:58 AM35 °FClear.5 mph82%30.27 "HgN/A
5:58 AM36 °FClear.7 mph81%30.27 "HgN/A
4:58 AM37 °FPassing clouds.9 mph81%30.24 "HgN/A
3:58 AM37 °FOvercast.8 mph87%30.23 "HgN/A
2:58 AM37 °FOvercast.7 mph87%30.22 "HgN/A
1:58 AM38 °FPassing clouds.8 mph85%30.21 "HgN/A
12:58 AM39 °FPartly cloudy.9 mph87%30.19 "HgN/A
11:58 PM
Tue, Mar 3
39 °FPassing clouds.10 mph87%30.17 "HgN/A
11:04 PM39 °FLight rain. Passing clouds.9 mph81%30.14 "HgN/A
10:58 PM39 °FLight rain. Passing clouds.10 mph87%30.17 "HgN/A
9:58 PM40 °FLight rain. Passing clouds.10 mph87%30.16 "HgN/A
8:58 PM43 °FLight rain. Passing clouds.22 mph76%30.13 "Hg6 mi
7:58 PM45 °FPassing clouds.12 mph61%30.09 "HgN/A
6:55 PM46 °FPartly cloudy.16 mph50%30.08 "HgN/A
5:58 PM47 °FSunny.13 mph48%30.08 "HgN/A
4:58 PM48 °FPassing clouds.15 mph43%30.09 "HgN/A
3:58 PM51 °FSunny.12 mph41%30.10 "HgN/A
2:58 PM50 °FScattered clouds.17 mph45%30.11 "HgN/A
Weather by CustomWeather, © 2015

See weather overviewHow to use our weather pages